Location: Newark
(7.0858°N, 171.3717°E)
Time: 22:27:51
(UTC+00:00)

Vanguard 1 Rocket - Visible Passes

Search period start: 18 June 2021 00:00
Search period end: 28 June 2021 00:00
Orbit: 651 x 4225 km, 34.3° (Epoch: 18 June)

Date Brightness Start Highest point End Pass type
(mag) Time Alt. Az. Time Alt. Az. Time Alt. Az.
18 Jun 9.5 08:59:52 10° W 09:05:07 30° NNW 09:13:41 10° NE visible
18 Jun 10.9 11:28:33 10° NW 11:36:06 20° N 11:47:21 10° NE visible
18 Jun 11.2 13:56:14 10° NW 14:11:15 33° NNE 14:32:48 10° E visible
18 Jun 10.9 16:23:46 10° NW 16:46:42 68° NE 17:11:39 10° ESE visible
19 Jun 8.3 07:48:30 10° WSW 07:53:13 48° NNW 08:00:41 10° NE visible
19 Jun 10.5 10:16:18 10° NW 10:21:58 19° N 10:30:16 10° NE visible
19 Jun 11.2 12:44:28 10° NNW 12:55:25 24° NNE 13:11:54 10° ENE visible
19 Jun 11.0 15:11:12 10° NW 15:30:36 51° NNE 15:55:41 10° ESE visible
19 Jun 10.7 17:40:03 10° WNW 18:05:06 80° SW 18:28:20 10° SE visible
20 Jun 10.0 09:04:06 10° WNW 09:08:50 21° NNW 09:15:51 10° NNE visible
20 Jun 11.0 11:32:51 10° NNW 11:40:17 19° N 11:51:07 10° NE visible
20 Jun 11.1 13:59:18 10° NW 14:14:46 37° NNE 14:37:22 10° E visible
20 Jun 10.7 16:26:27 10° NW 16:49:14 79° NE 17:14:40 10° ESE visible
21 Jun 9.1 07:52:15 10° W 07:56:38 30° NNW 08:03:05 10° NE visible
21 Jun 10.7 10:21:02 10° NW 10:26:02 16° N 10:32:50 10° NNE visible
21 Jun 11.1 12:47:53 10° NNW 12:59:19 27° NNE 13:16:47 10° ENE visible
21 Jun 10.8 15:13:56 10° NW 15:33:25 60° NE 15:59:14 10° ESE visible
21 Jun 10.7 17:42:59 10° WNW 18:07:26 69° SW 18:30:48 10° SE visible
22 Jun 10.3 09:08:48 10° NW 09:12:41 16° N 09:17:51 10° NNE visible
22 Jun 11.0 11:36:47 10° NNW 11:44:24 19° NNE 11:55:28 10° NE visible
22 Jun 10.9 14:02:10 10° NW 14:17:57 43° NNE 14:41:35 10° E visible
22 Jun 10.6 16:29:13 10° NW 16:51:40 90° SW 17:17:25 10° SE visible
23 Jun 9.7 07:56:25 10° WNW 08:00:11 20° NNW 08:05:14 10° NNE visible
23 Jun 10.8 10:25:46 10° NNW 10:30:09 14° N 10:35:48 10° NE visible
23 Jun 10.9 12:51:01 10° NNW 13:02:57 30° NNE 13:21:38 10° E visible
23 Jun 10.6 15:16:39 10° NW 15:36:02 69° NE 16:02:25 10° ESE visible
23 Jun 10.7 17:46:11 10° WNW 18:09:50 58° SW 18:33:05 10° SE visible
24 Jun 10.5 09:14:12 10° NNW 09:16:37 12° N 09:19:29 10° NNE visible
24 Jun 10.9 11:40:19 10° NNW 11:48:22 20° NNE 12:00:16 10° ENE visible
24 Jun 10.7 14:04:58 10° NW 14:20:53 50° NE 14:45:25 10° ESE visible
24 Jun 10.5 16:32:06 10° WNW 16:54:04 78° SW 17:19:55 10° SE visible
25 Jun 10.1 08:01:17 10° NW 08:03:51 13° NNW 08:06:56 10° NNE visible
25 Jun 10.8 10:30:07 10° NNW 10:34:15 13° NNE 10:39:26 10° NE visible
25 Jun 10.8 12:53:56 10° NNW 13:06:16 35° NNE 13:26:14 10° E visible
25 Jun 10.4 15:19:26 10° NW 15:38:32 80° NE 16:05:17 10° ESE visible
25 Jun 10.8 17:49:42 10° WNW 18:12:22 49° SW 18:35:12 10° SSE visible
26 Jun 10.8 11:43:29 10° NNW 11:52:06 22° NNE 12:05:17 10° ENE visible
26 Jun 10.4 14:07:43 10° NW 14:23:35 59° NE 14:48:53 10° ESE visible
26 Jun 10.5 16:35:12 10° WNW 16:56:31 67° SW 17:22:12 10° SE visible
27 Jun 10.8 10:33:48 10° N 10:38:15 13° NNE 10:43:55 10° NE visible
27 Jun 10.5 12:56:46 10° NNW 13:09:19 41° NE 13:30:28 10° E visible
27 Jun 10.2 15:22:18 10° NW 15:41:00 88° SW 16:07:52 10° SE visible
27 Jun 10.9 17:53:38 10° W 18:15:09 40° SW 18:37:11 10° SSE visible
